SCP
0 0 0 0 0 0 0 0 0 0 0 0 0 0 0 0 0 0 0 0 0 0 0 0 0 0 0 0 0 0 0 0 0 0 0 0 -0 -0 -0 -0 -0 -0 -0
0 0 0 0 0 0 0 0 0 0 0 0 0 0 0 0 0 0 0 0 0 0 0 0 0 0 0 0 0 0 0 0 0 0 0 0 0 -0 -0 -0 -0 -0 -0
0 0 0 0 0 0 0 0 0 0 0 0 0 0 0 0 0 0 0 0 0 0 0 0 0 0 0 0 0 0 0 0 0 0 0 0 0 0 0 -0 -0 -0 -0
0 0 0 0 0 0 0 0 0 0 0 0 0 0 0 0 0 0 0 0 0 0 0 0 0 0 0 0 0 0 0 0 0 0 0 0 0 0 0 0 -0 -0 -0
0 0 0 0 0 0 0 0 0 0 0 0 0 0 0 0 0 0 0 0 0 0 0 0 0 0 0 0 0 -0 0 -0 -0 -0 0 0 0 0 0 0 0 -0 -0
0 0 0 0 0 0 0 0 0 0 0 0 0 0 0 0 0 0 0 0 0 0 0 0 0 0 0 0 0 -0 0 0 -0 -0 -0 0 0 0 0 0 -0 -0 -0
0 0 0 0 0 0 0 0 0 0 0 0 0 0 0 0 0 0 0 0 0 0 0 0 0 0 0 0 0 -0 0 0 0 -0 -0 -0 0 0 0 -0 -0 -0 0
0 0 0 0 0 0 0 0 0 0 0 0 0 0 0 0 0 0 0 0 0 0 0 0 0 0 0 0 0 0 0 0 0 0 0 0 0 0 0 0 -0 -0 0
0 0 0 0 0 0 0 0 0 0 0 0 0 0 0 0 0 0 0 0 0 0 0 0 0 0 0 0 0 0 0 0 0 0 0 0 0 0 0 0 0 0 0
0 0 0 0 0 0 0 0 0 0 0 0 0 0 0 0 0 0 0 0 0 0 0 0 0 0 0 0 0 0 0 0 0 0 0 0 0 0 0 0 0 0 0
0 0 0 -0 -0 0 0 0 0 0 0 0 0 0 0 0 0 0 0 0 0 0 0 0 0 0 0 0 0 0 0 0 0 0 0 0 0 0 0 0 0 0 0
0 0 0 0 -0 0 0 0 0 0 0 0 0 0 0 0 0 0 0 0 0 0 0 0 0 0 0 0 0 0 0 0 0 0 0 0 0 0 -0 0 0 0 -0
0 0 0 0 0 0 0 0 0 0 0 0 0 0 0 0 0 0 0 0 0 0 0 0 0 0 0 0 0 0 0 0 0 0 0 -0 0 -0 0 0 0 0 -0
-0 0 0 0 0 0 0 0 0 0 0 0 0 0 0 0 0 0 0 0 0 0 0 0 0 0 0 0 0 0 0 0 0 0 0 0 -0 -0 -0 0 0 0 -0
-0 -0 0 0 0 0 0 0 0 0 0 0 0 0 0 0 0 0 0 0 0 0 0 0 0 0 0 0 0 0 0 0 0 0 0 0 0 0 -0 -0 0 -0 -0
-0 -0 0 0 0 0 0 0 0 0 0 0 0 0 0 0 0 0 0 0 0 0 0 0 0 0 0 0 0 0 0 0 0 0 0 0 0 0 -0 -0 -0 -0 -0
0 -0 0 0 0 0 0 0 0 0 0 0 0 0 0 0 0 0 0 0 0 0 0 0 0 0 0 0 0 0 0 0 0 0 0 0 0 0 0 0 -0 0 0
0 0 0 0 0 0 0 0 0 0 0 0 0 0 0 0 0 0 0 0 0 0 0 0 0 0 0 0 0 0 0 0 0 0 0 0 0 0 0 0 0 0 0
-0 0 0 0 0 0 0 0 0 0 0 0 0 0 0 0 0 0 0 0 0 0 0 0 0 0 0 0 0 0 0 0 0 0 0 0 0 0 0 0 0 0 0
-0 0 0 0 0 0 0 0 0 0 0 0 0 0 0 0 0 0 0 0 0 0 0 0 0 0 0 0 0 0 0 0 0 0 0 0 0 0 0 0 0 0 0
-0 0 0 0 0 0 0 0 0 0 0 0 0 0 0 0 0 0 0 0 0 0 0 0 0 0 0 0 0 0 0 0 0 0 0 0 0 0 0 0 0 0 0
-0 -0 0 0 0 0 0 0 0 0 0 0 0 0 0 0 0 0 0 0 0 0 0 0 0 0 0 0 0 0 0 0 0 0 0 0 0 0 0 0 0 0 0
0 0 0 0 0 0 0 0 0 0 0 0 0 0 0 0 0 0 0 0 0 0 0 0 0 0 0 0 0 0 0 0 0 0 0 0 0 0 0 0 0 0 0
0 -0 0 0 0 0 0 0 0 0 0 0 0 0 0 0 0 0 0 0 0 0 0 0 0 0 0 0 0 0 0 0 0 0 0 0 0 0 0 0 0 0 0
0 0 0 0 0 0 0 0 0 0 0 0 0 0 0 0 0 0 0 0 0 0 0 0 0 0 0 0 0 0 0 0 0 0 0 0 0 0 0 0 0 0 0
-0 0 0 0 0 0 0 0 0 0 0 0 0 0 0 0 0 0 0 0 0 0 0 0 0 0 0 0 0 0 0 0 0 0 0 0 0 0 0 0 0 0 0
Wind_Speed_500mb
79 73 68 74 75 77 79 86 87 81 76 72 70 64 61 57 52 46 41 38 35 33 32 31 29 29 35 43 46 47 47 51 52 52 45 43 37 42 41 41 42 43 41
78 76 68 52 69 82 85 87 93 89 86 80 77 72 66 61 54 49 47 43 40 38 36 36 35 34 37 45 50 51 54 52 46 50 49 43 44 36 36 37 46 40 49
77 82 74 73 75 77 89 89 92 95 93 90 79 76 65 62 61 60 56 52 46 43 41 42 40 39 35 44 50 51 51 47 49 42 40 24 31 60 36 39 45 53 54
76 90 83 77 77 76 80 90 92 96 98 98 89 83 82 80 76 71 63 56 52 50 46 47 46 44 41 41 45 43 49 47 42 48 21 32 59 46 52 63 62 66 53
71 82 85 78 69 68 71 90 96 97 99 102 96 92 87 80 73 73 65 62 57 55 52 53 53 51 47 42 40 41 44 45 39 46 33 55 57 54 66 68 60 47 44
76 75 75 76 75 72 72 77 98 104 103 101 102 99 94 89 84 77 73 70 64 61 58 57 57 56 52 46 42 39 37 41 38 35 51 52 61 64 80 81 63 54 43
64 67 78 79 78 77 74 78 90 105 109 107 104 104 101 94 90 81 80 78 73 70 67 63 63 60 58 53 46 43 40 40 42 39 57 56 48 64 67 72 70 61 49
84 81 83 73 84 89 86 88 96 99 110 113 107 103 105 99 96 87 81 80 77 72 67 65 63 60 58 57 51 45 41 40 42 43 50 53 52 56 60 67 67 64 50
78 90 92 74 78 76 81 90 94 103 108 115 112 108 107 106 97 94 87 81 77 72 67 65 63 62 59 58 54 49 44 41 42 46 50 51 56 64 61 58 59 62 59
87 66 73 70 68 67 74 83 91 100 111 111 115 113 109 103 96 94 94 87 81 75 71 68 65 64 63 59 57 51 45 40 44 47 50 57 59 69 64 59 65 51 51
94 76 60 54 67 80 84 87 96 105 111 113 114 116 114 107 100 93 96 92 84 77 74 71 68 67 66 63 60 55 50 46 47 45 46 54 61 69 65 65 62 46 51
87 71 61 51 52 62 76 82 88 106 113 114 114 114 116 108 102 98 92 96 89 79 77 74 72 70 69 66 63 60 56 52 50 47 49 51 60 63 63 59 56 53 46
59 58 54 50 44 45 63 80 90 103 110 111 113 109 113 111 104 99 91 92 92 84 81 80 77 74 72 70 65 62 58 53 48 46 46 52 62 64 66 62 62 51 39
53 59 56 50 42 36 44 68 85 98 103 108 110 110 112 110 101 95 91 87 93 90 84 82 80 76 73 72 68 65 61 55 49 45 45 52 63 65 70 68 54 49 43
57 60 62 54 45 32 26 54 76 90 93 92 100 109 106 103 97 94 91 85 90 93 84 84 82 79 76 74 73 69 65 59 53 48 47 51 60 64 67 66 55 47 39
56 57 59 54 44 33 13 36 65 81 83 83 90 94 99 97 98 92 90 86 87 93 88 87 85 83 79 76 74 71 69 63 57 53 53 54 59 63 60 61 54 42 29
56 62 62 48 43 33 16 24 50 69 77 75 81 86 94 92 90 87 88 86 89 93 90 88 88 85 82 77 75 73 69 66 61 57 58 60 62 66 63 57 49 42 30
78 68 61 45 35 21 18 9 37 57 67 71 77 82 85 88 80 81 85 83 86 93 92 90 88 86 83 77 76 74 71 67 63 61 62 62 66 70 66 60 47 40 35
71 68 55 40 27 19 11 5 20 45 59 68 74 76 77 77 78 76 80 81 84 89 92 87 88 87 84 79 76 76 75 72 68 65 65 66 68 72 72 62 50 45 39
82 88 71 47 30 16 8 8 14 31 53 62 65 67 69 70 73 70 75 77 79 86 88 87 87 85 82 80 78 79 78 77 73 68 67 69 68 70 71 66 55 49 41
81 88 79 68 53 25 7 5 14 20 39 46 49 53 57 60 61 56 68 78 80 84 89 87 87 85 82 81 79 80 80 79 77 75 74 74 73 70 69 68 58 46 40
66 80 86 80 68 42 15 6 11 20 17 48 48 52 53 60 62 63 69 76 80 85 89 89 87 84 80 79 79 79 76 75 76 77 74 72 72 72 71 69 67 52 43
64 67 78 84 75 63 39 14 7 20 26 22 27 39 52 58 60 66 69 74 77 84 90 91 88 85 80 77 75 76 72 69 71 70 69 68 68 70 69 70 68 60 54
49 66 68 73 82 72 60 37 13 11 21 27 31 34 41 49 54 61 66 71 79 85 89 90 89 86 82 81 80 75 71 67 67 65 64 62 64 71 72 73 71 68 62
42 47 60 62 64 73 67 58 35 14 16 23 32 40 38 43 52 57 63 69 74 79 85 88 87 88 89 89 84 82 81 77 72 67 66 64 64 74 75 77 76 73 67
38 35 32 50 61 62 68 64 57 33 15 11 23 33 40 47 50 52 56 57 59 64 70 73 75 76 76 78 79 77 74 72 68 68 70 67 69 76 80 82 80 78 74
Wind_Direction_500mb
276 274 267 253 242 239 233 225 223 227 221 214 210 209 217 211 211 208 206 204 199 194 185 176 172 159 158 156 153 141 130 124 119 119 109 94 96 100 100 116 112 111 108
273 272 267 257 243 238 236 230 226 226 224 224 215 214 211 213 213 210 207 204 202 197 191 183 176 166 161 162 160 147 138 133 133 124 112 104 101 103 100 109 122 120 121
265 269 273 263 254 240 234 232 228 227 227 226 220 216 212 218 213 210 209 204 202 199 195 187 184 176 166 161 161 154 146 143 138 138 130 117 124 108 116 124 129 123 116
258 262 264 269 256 243 234 234 231 227 227 226 224 219 214 212 213 212 208 206 202 199 198 192 189 183 174 168 164 164 158 157 152 148 147 143 137 125 111 115 119 122 119
267 265 260 264 257 247 240 232 231 228 228 227 227 224 220 219 218 213 209 208 204 200 200 196 192 191 184 180 180 174 172 174 164 163 152 150 143 137 132 121 125 124 120
281 267 260 259 257 249 240 236 231 228 228 229 226 226 224 220 218 213 209 210 207 203 201 200 197 194 192 188 188 186 188 184 181 175 165 163 158 153 139 134 134 132 131
286 286 266 254 252 246 242 236 233 230 228 229 227 227 226 226 223 216 211 209 207 206 202 201 199 197 196 195 192 194 195 194 191 184 175 172 174 168 160 150 145 141 142
282 279 273 269 258 255 252 245 238 232 229 229 229 229 227 226 226 220 216 214 213 211 205 203 202 200 199 200 199 198 196 198 199 194 186 186 183 184 182 169 162 146 147
299 281 277 268 262 258 252 249 240 234 230 229 229 228 226 226 227 221 218 218 215 215 209 206 204 201 201 200 201 202 200 203 201 195 193 191 191 191 190 184 177 165 161
321 305 275 266 267 265 260 253 246 241 232 227 229 227 227 227 227 225 218 217 216 214 211 208 205 203 202 202 202 203 199 203 192 193 196 194 195 193 197 195 186 182 175
301 313 302 275 262 260 257 248 236 232 228 225 227 226 225 224 224 226 220 218 217 214 212 210 207 204 203 202 201 203 199 196 189 190 190 189 191 195 198 197 195 198 187
302 311 304 296 277 262 244 234 231 226 227 224 222 224 223 224 223 224 221 218 216 214 213 211 209 206 204 203 202 202 199 198 195 195 193 196 197 197 196 202 204 195 194
320 323 319 307 294 273 238 228 225 223 221 219 218 219 221 221 221 222 221 218 216 214 212 211 210 208 205 204 203 203 201 200 199 201 201 196 193 193 191 196 195 197 204
335 337 332 327 318 296 238 225 218 218 216 214 214 217 220 220 220 220 219 218 214 213 211 211 210 209 207 205 204 202 203 203 202 201 202 200 195 193 189 194 201 204 203
345 344 340 336 327 317 249 221 214 212 210 202 207 217 218 219 218 218 217 216 213 212 211 210 209 209 208 206 204 203 202 202 202 200 200 197 195 191 192 194 197 206 210
349 346 343 342 333 331 279 219 212 210 203 199 204 209 215 216 214 214 215 214 212 210 209 209 209 208 208 207 206 204 203 202 204 201 196 195 192 191 192 197 205 204 212
350 353 345 345 334 337 323 216 211 209 201 199 203 202 215 213 213 210 212 211 209 208 207 208 208 209 209 206 205 204 205 204 203 200 195 190 189 191 194 196 201 209 217
1 353 348 344 343 324 338 226 208 207 196 198 204 203 209 211 210 207 209 208 207 207 206 207 207 209 209 207 205 204 204 205 204 202 197 192 188 188 189 189 191 201 202
2 0 356 351 353 333 315 303 213 207 197 201 203 205 206 206 206 207 206 207 206 205 206 207 207 207 208 206 205 204 204 204 205 202 199 197 194 192 194 198 205 201 198
11 9 9 11 13 3 332 247 210 205 201 203 205 208 210 208 209 210 208 208 208 206 205 206 208 208 208 205 204 205 205 204 204 204 203 203 200 199 201 203 204 201 198
4 7 16 17 18 17 14 295 221 205 213 214 211 208 212 211 212 213 212 208 207 206 205 206 207 208 207 205 204 206 207 206 204 205 203 204 204 206 206 206 208 205 202
356 8 10 19 22 26 43 120 200 214 204 206 206 212 212 211 211 208 209 208 207 205 204 205 206 207 206 205 205 208 208 208 208 208 206 206 206 208 212 211 209 207 206
2 4 5 11 22 24 29 41 116 192 188 209 201 202 204 205 208 207 203 205 207 206 204 204 204 205 204 203 206 209 208 208 211 213 212 210 209 207 209 211 210 209 207
353 4 9 5 12 23 23 31 49 157 183 194 194 201 204 205 210 208 206 207 206 206 206 203 203 203 202 201 202 205 206 207 209 211 214 213 211 206 207 207 208 209 209
350 4 360 2 8 12 24 24 35 80 175 192 199 201 201 205 207 209 209 208 211 212 207 205 204 202 202 203 203 202 202 204 205 204 210 212 207 203 206 207 209 208 210
352 356 2 356 1 2 12 25 30 39 73 169 197 203 205 205 205 205 204 207 212 213 211 212 212 208 212 207 205 206 206 204 203 203 207 208 205 205 207 208 208 212 213
Wind_Speed_850mb
79 73 68 74 75 77 79 86 87 81 76 72 70 64 61 57 52 46 41 38 35 33 32 31 29 29 35 43 46 47 47 51 52 52 45 43 37 42 41 41 42 43 41
78 76 68 52 69 82 85 87 93 89 86 80 77 72 66 61 54 49 47 43 40 38 36 36 35 34 37 45 50 51 54 52 46 50 49 43 44 36 36 37 46 40 49
77 82 74 73 75 77 89 89 92 95 93 90 79 76 65 62 61 60 56 52 46 43 41 42 40 39 35 44 50 51 51 47 49 42 40 24 31 60 36 39 45 53 54
76 90 83 77 77 76 80 90 92 96 98 98 89 83 82 80 76 71 63 56 52 50 46 47 46 44 41 41 45 43 49 47 42 48 21 32 59 46 52 63 62 66 53
71 82 85 78 69 68 71 90 96 97 99 102 96 92 87 80 73 73 65 62 57 55 52 53 53 51 47 42 40 41 44 45 39 46 33 55 57 54 66 68 60 47 44
76 75 75 76 75 72 72 77 98 104 103 101 102 99 94 89 84 77 73 70 64 61 58 57 57 56 52 46 42 39 37 41 38 35 51 52 61 64 80 81 63 54 43
64 67 78 79 78 77 74 78 90 105 109 107 104 104 101 94 90 81 80 78 73 70 67 63 63 60 58 53 46 43 40 40 42 39 57 56 48 64 67 72 70 61 49
84 81 83 73 84 89 86 88 96 99 110 113 107 103 105 99 96 87 81 80 77 72 67 65 63 60 58 57 51 45 41 40 42 43 50 53 52 56 60 67 67 64 50
78 90 92 74 78 76 81 90 94 103 108 115 112 108 107 106 97 94 87 81 77 72 67 65 63 62 59 58 54 49 44 41 42 46 50 51 56 64 61 58 59 62 59
87 66 73 70 68 67 74 83 91 100 111 111 115 113 109 103 96 94 94 87 81 75 71 68 65 64 63 59 57 51 45 40 44 47 50 57 59 69 64 59 65 51 51
94 76 60 54 67 80 84 87 96 105 111 113 114 116 114 107 100 93 96 92 84 77 74 71 68 67 66 63 60 55 50 46 47 45 46 54 61 69 65 65 62 46 51
87 71 61 51 52 62 76 82 88 106 113 114 114 114 116 108 102 98 92 96 89 79 77 74 72 70 69 66 63 60 56 52 50 47 49 51 60 63 63 59 56 53 46
59 58 54 50 44 45 63 80 90 103 110 111 113 109 113 111 104 99 91 92 92 84 81 80 77 74 72 70 65 62 58 53 48 46 46 52 62 64 66 62 62 51 39
53 59 56 50 42 36 44 68 85 98 103 108 110 110 112 110 101 95 91 87 93 90 84 82 80 76 73 72 68 65 61 55 49 45 45 52 63 65 70 68 54 49 43
57 60 62 54 45 32 26 54 76 90 93 92 100 109 106 103 97 94 91 85 90 93 84 84 82 79 76 74 73 69 65 59 53 48 47 51 60 64 67 66 55 47 39
56 57 59 54 44 33 13 36 65 81 83 83 90 94 99 97 98 92 90 86 87 93 88 87 85 83 79 76 74 71 69 63 57 53 53 54 59 63 60 61 54 42 29
56 62 62 48 43 33 16 24 50 69 77 75 81 86 94 92 90 87 88 86 89 93 90 88 88 85 82 77 75 73 69 66 61 57 58 60 62 66 63 57 49 42 30
78 68 61 45 35 21 18 9 37 57 67 71 77 82 85 88 80 81 85 83 86 93 92 90 88 86 83 77 76 74 71 67 63 61 62 62 66 70 66 60 47 40 35
71 68 55 40 27 19 11 5 20 45 59 68 74 76 77 77 78 76 80 81 84 89 92 87 88 87 84 79 76 76 75 72 68 65 65 66 68 72 72 62 50 45 39
82 88 71 47 30 16 8 8 14 31 53 62 65 67 69 70 73 70 75 77 79 86 88 87 87 85 82 80 78 79 78 77 73 68 67 69 68 70 71 66 55 49 41
81 88 79 68 53 25 7 5 14 20 39 46 49 53 57 60 61 56 68 78 80 84 89 87 87 85 82 81 79 80 80 79 77 75 74 74 73 70 69 68 58 46 40
66 80 86 80 68 42 15 6 11 20 17 48 48 52 53 60 62 63 69 76 80 85 89 89 87 84 80 79 79 79 76 75 76 77 74 72 72 72 71 69 67 52 43
64 67 78 84 75 63 39 14 7 20 26 22 27 39 52 58 60 66 69 74 77 84 90 91 88 85 80 77 75 76 72 69 71 70 69 68 68 70 69 70 68 60 54
49 66 68 73 82 72 60 37 13 11 21 27 31 34 41 49 54 61 66 71 79 85 89 90 89 86 82 81 80 75 71 67 67 65 64 62 64 71 72 73 71 68 62
42 47 60 62 64 73 67 58 35 14 16 23 32 40 38 43 52 57 63 69 74 79 85 88 87 88 89 89 84 82 81 77 72 67 66 64 64 74 75 77 76 73 67
38 35 32 50 61 62 68 64 57 33 15 11 23 33 40 47 50 52 56 57 59 64 70 73 75 76 76 78 79 77 74 72 68 68 70 67 69 76 80 82 80 78 74
Wind_Direction_850mb
276 274 267 253 242 239 233 225 223 227 221 214 210 209 217 211 211 208 206 204 199 194 185 176 172 159 158 156 153 141 130 124 119 119 109 94 96 100 100 116 112 111 108
273 272 267 257 243 238 236 230 226 226 224 224 215 214 211 213 213 210 207 204 202 197 191 183 176 166 161 162 160 147 138 133 133 124 112 104 101 103 100 109 122 120 121
265 269 273 263 254 240 234 232 228 227 227 226 220 216 212 218 213 210 209 204 202 199 195 187 184 176 166 161 161 154 146 143 138 138 130 117 124 108 116 124 129 123 116
258 262 264 269 256 243 234 234 231 227 227 226 224 219 214 212 213 212 208 206 202 199 198 192 189 183 174 168 164 164 158 157 152 148 147 143 137 125 111 115 119 122 119
267 265 260 264 257 247 240 232 231 228 228 227 227 224 220 219 218 213 209 208 204 200 200 196 192 191 184 180 180 174 172 174 164 163 152 150 143 137 132 121 125 124 120
281 267 260 259 257 249 240 236 231 228 228 229 226 226 224 220 218 213 209 210 207 203 201 200 197 194 192 188 188 186 188 184 181 175 165 163 158 153 139 134 134 132 131
286 286 266 254 252 246 242 236 233 230 228 229 227 227 226 226 223 216 211 209 207 206 202 201 199 197 196 195 192 194 195 194 191 184 175 172 174 168 160 150 145 141 142
282 279 273 269 258 255 252 245 238 232 229 229 229 229 227 226 226 220 216 214 213 211 205 203 202 200 199 200 199 198 196 198 199 194 186 186 183 184 182 169 162 146 147
299 281 277 268 262 258 252 249 240 234 230 229 229 228 226 226 227 221 218 218 215 215 209 206 204 201 201 200 201 202 200 203 201 195 193 191 191 191 190 184 177 165 161
321 305 275 266 267 265 260 253 246 241 232 227 229 227 227 227 227 225 218 217 216 214 211 208 205 203 202 202 202 203 199 203 192 193 196 194 195 193 197 195 186 182 175
301 313 302 275 262 260 257 248 236 232 228 225 227 226 225 224 224 226 220 218 217 214 212 210 207 204 203 202 201 203 199 196 189 190 190 189 191 195 198 197 195 198 187
302 311 304 296 277 262 244 234 231 226 227 224 222 224 223 224 223 224 221 218 216 214 213 211 209 206 204 203 202 202 199 198 195 195 193 196 197 197 196 202 204 195 194
320 323 319 307 294 273 238 228 225 223 221 219 218 219 221 221 221 222 221 218 216 214 212 211 210 208 205 204 203 203 201 200 199 201 201 196 193 193 191 196 195 197 204
335 337 332 327 318 296 238 225 218 218 216 214 214 217 220 220 220 220 219 218 214 213 211 211 210 209 207 205 204 202 203 203 202 201 202 200 195 193 189 194 201 204 203
345 344 340 336 327 317 249 221 214 212 210 202 207 217 218 219 218 218 217 216 213 212 211 210 209 209 208 206 204 203 202 202 202 200 200 197 195 191 192 194 197 206 210
349 346 343 342 333 331 279 219 212 210 203 199 204 209 215 216 214 214 215 214 212 210 209 209 209 208 208 207 206 204 203 202 204 201 196 195 192 191 192 197 205 204 212
350 353 345 345 334 337 323 216 211 209 201 199 203 202 215 213 213 210 212 211 209 208 207 208 208 209 209 206 205 204 205 204 203 200 195 190 189 191 194 196 201 209 217
1 353 348 344 343 324 338 226 208 207 196 198 204 203 209 211 210 207 209 208 207 207 206 207 207 209 209 207 205 204 204 205 204 202 197 192 188 188 189 189 191 201 202
2 0 356 351 353 333 315 303 213 207 197 201 203 205 206 206 206 207 206 207 206 205 206 207 207 207 208 206 205 204 204 204 205 202 199 197 194 192 194 198 205 201 198
11 9 9 11 13 3 332 247 210 205 201 203 205 208 210 208 209 210 208 208 208 206 205 206 208 208 208 205 204 205 205 204 204 204 203 203 200 199 201 203 204 201 198
4 7 16 17 18 17 14 295 221 205 213 214 211 208 212 211 212 213 212 208 207 206 205 206 207 208 207 205 204 206 207 206 204 205 203 204 204 206 206 206 208 205 202
356 8 10 19 22 26 43 120 200 214 204 206 206 212 212 211 211 208 209 208 207 205 204 205 206 207 206 205 205 208 208 208 208 208 206 206 206 208 212 211 209 207 206
2 4 5 11 22 24 29 41 116 192 188 209 201 202 204 205 208 207 203 205 207 206 204 204 204 205 204 203 206 209 208 208 211 213 212 210 209 207 209 211 210 209 207
353 4 9 5 12 23 23 31 49 157 183 194 194 201 204 205 210 208 206 207 206 206 206 203 203 203 202 201 202 205 206 207 209 211 214 213 211 206 207 207 208 209 209
350 4 360 2 8 12 24 24 35 80 175 192 199 201 201 205 207 209 209 208 211 212 207 205 204 202 202 203 203 202 202 204 205 204 210 212 207 203 206 207 209 208 210
352 356 2 356 1 2 12 25 30 39 73 169 197 203 205 205 205 205 204 207 212 213 211 212 212 208 212 207 205 206 206 204 203 203 207 208 205 205 207 208 208 212 213